Weather in Brindakit

Russia / Sakha (Yakutia) Republic     60°03′58″N   137°41′09″E
temp.,
°C
wind,
m/s
gust,
m/s
humid.,
%
clouds,
%
prec.,
mm/h
press.,
hPa
HPBL,
m
12 may, wed
wed1201:00−1ese119299 0.0 101610
04:00−1se1193100 0.0 101612
07:00+2se1186100 0.0 1014105
10:00+5se227285 0.0 1013563
13:00+8se236122 0.0 1012871
16:00+8sse225988 0.0 10101251
19:00+6se2374100 0.0 1010132
22:00+2se2287100 0.0 101113
13 may, thu
thu1301:00+1se1187100 0.0 101013
04:00+2sse2284100 0.0 101017
07:00+3sse2375100 0.0 1009138
10:00+6s1162100 0.0 1009512
13:00+9nw236292 0.0 10071027
16:00+4n2393100 0.0 1009194
19:00+4nnw239591 0.0 1010165
22:00+3nnw1294100 0.0 101034
14 may, fri
fri1401:00+1nnw2297100 0.0 101119
04:00−1nnw229861 0.0 101255
07:00+1nnw228334 0.0 1012180
10:00+6n224615 0.0 1011774
13:00+10nne11355 0.0 10101289
16:00+11ese11315 0.0 10091752
19:00+10se34425 0.0 1010811
22:00+5e225438 0.0 101120
15 may, sat
sat1501:00+4e385298 0.0 1012179
04:00+3ese347387 0.0 101282
07:00+3ese289497 0.5 1014628
10:00+7se8105462 0.7 10111331
13:00+10se9104272 0.0 10091833
16:00+10ese8104061 0.0 10081936
19:00+7se8105786 0.0 10091337
22:00+3se71270100 0.0 1012722
16 may, sun
sun1601:00+1se5127664 0.0 1012704
04:00+1ese31179100 0.0 1012697
07:00+2ese51170100 0.0 10121048
10:00+3ese81172100 0.1 10121141
13:00+5ese81161100 0.1 10101448
16:00+5se81160100 0.1 10101417
19:00+4se7106299 0.1 10101222
22:000sse358015 0.1 1012162